Weather History for KM40 - May, 2013

Change the Weather History Date:

Thursday, May 2, 2013

  Actual Average (KTUP) Record (KTUP)
Temperature  
Mean Temperature 71 °F 67 °F  
Max Temperature 80 °F 78 °F 91 °F (1959)
Min Temperature 62 °F 55 °F 38 °F (1981)
Degree Days  
Heating Degree Days 0 2  
Month to date heating degree days 4  
Since 1 July heating degree days 2936  
Cooling Degree Days 6 4  
Month to date cooling degree days 7  
Year to date cooling degree days 83  
Growing Degree Days 21 (Base 50)    
Moisture  
Dew Point 51 °F    
Average Humidity 55    
Maximum Humidity 60    
Minimum Humidity 52    
Precipitation  
Precipitation 0.07 in 0.20 in 3.15 in (2010)
Month to date precipitation 0.39  
Year to date precipitation 19.43  
Snow  
Snow 0.00 in 0.00 in - ()
Month to date snowfall 0.0  
Since 1 July snowfall 2.1  
Snow Depth -    
Sea Level Pressure  
Sea Level Pressure 30.06 in    
Wind  
Wind Speed 6 mph (NNW)    
Max Wind Speed 12 mph    
Max Gust Speed 18 mph    
Visibility 9 miles    
Events Rain    
T = Trace of Precipitation, MM = Missing Value Source: NWS Daily Summary

Daily Weather History Graph

Daily Weather History Graph

Search for Another Location

Airport or City:

Trip Planner

Search our weather history database for the weather conditions in past years. The results will help you decide how hot, cold, wet, or windy it might be!

Date:

Astronomy

May. 02, 2013 Rise Set
Actual Time 6:03 AM CDT 7:38 PM CDT
Civil Twilight 5:37 AM CDT 8:05 PM CDT
Nautical Twilight 5:05 AM CDT 8:37 PM CDT
Astronomical Twilight 4:31 AM CDT 9:11 PM CDT
Moon 1:30 AM CDT (5/2) 12:47 PM CDT (5/2)
Length of Visible Light 14h 28m
Length of Day
13h 34m
Waning Gibbous, 47% of the Moon is Illuminated
May 2
Waning Gibbous
May 9
New
May 17
First Quarter
May 24
Full
May 31
Last Quarter

Hourly Weather History & Observations

Time (CDT) Temp. Heat Index Dew Point Humidity Pressure Visibility Wind Dir Wind Speed Gust Speed Precip Events Conditions
12:15 AM 66.2 °F - 48.2 °F 52% 30.05 in 10.0 mi North - - N/A   Partly Cloudy
12:35 AM 66.2 °F - 48.2 °F 52% 30.05 in 10.0 mi North - - N/A   Scattered Clouds
1:35 AM 66.2 °F - 48.2 °F 52% 30.04 in 10.0 mi North - - N/A   Scattered Clouds
1:55 AM 66.2 °F - 48.2 °F 52% 30.04 in 10.0 mi North - - N/A   Mostly Cloudy
2:15 AM 66.2 °F - 48.2 °F 52% 30.04 in 10.0 mi North - - N/A   Mostly Cloudy
2:35 AM 64.4 °F - 48.2 °F 56% 30.04 in 10.0 mi North - - N/A   Mostly Cloudy
2:55 AM 66.2 °F - 48.2 °F 52% 30.04 in 10.0 mi North - - N/A   Mostly Cloudy
3:15 AM 64.4 °F - 48.2 °F 56% 30.04 in 10.0 mi North - - N/A   Mostly Cloudy
3:35 AM 64.4 °F - 48.2 °F 56% 30.04 in 10.0 mi North - - N/A   Scattered Clouds
3:55 AM 64.4 °F - 48.2 °F 56% 30.04 in 10.0 mi North - - N/A   Scattered Clouds
4:15 AM 64.4 °F - 48.2 °F 56% 30.04 in 10.0 mi North - - N/A   Mostly Cloudy
4:35 AM 64.4 °F - 48.2 °F 56% 30.04 in 10.0 mi North - - N/A   Mostly Cloudy
4:55 AM 64.4 °F - 48.2 °F 56% 30.04 in 10.0 mi North - - N/A   Mostly Cloudy
5:15 AM 64.4 °F - 48.2 °F 56% 30.04 in 10.0 mi North - - N/A   Overcast
5:35 AM 64.4 °F - 48.2 °F 56% 30.04 in 10.0 mi North - - N/A   Overcast
5:55 AM 64.4 °F - 48.2 °F 56% 30.06 in 10.0 mi North - - N/A   Overcast
6:15 AM 64.4 °F - 48.2 °F 56% 30.07 in 10.0 mi North - - N/A   Overcast
6:35 AM 62.6 °F - 46.4 °F 55% 30.07 in 4.0 mi North - - N/A Rain Light Rain
6:55 AM 62.6 °F - 46.4 °F 55% 30.07 in 7.0 mi North - - N/A   Mostly Cloudy
7:15 AM 62.6 °F - 46.4 °F 55% 30.08 in 9.0 mi North - - N/A   Mostly Cloudy
7:35 AM 62.6 °F - 46.4 °F 55% 30.09 in 9.0 mi Calm Calm - N/A   Scattered Clouds
7:55 AM 64.4 °F - 48.2 °F 56% 30.09 in 10.0 mi North - - N/A   Mostly Cloudy
8:15 AM 64.4 °F - 46.4 °F 52% 30.09 in 7.0 mi North - - N/A   Mostly Cloudy
8:35 AM 64.4 °F - 46.4 °F 52% 30.09 in 10.0 mi North - - N/A   Mostly Cloudy
8:55 AM 64.4 °F - 48.2 °F 56% 30.10 in 10.0 mi North - - N/A   Mostly Cloudy
9:15 AM 66.2 °F - 50.0 °F 56% 30.09 in 9.0 mi North - - N/A   Overcast
9:35 AM 66.2 °F - 51.8 °F 60% 30.10 in 10.0 mi North - - N/A   Overcast
9:55 AM 68.0 °F - 51.8 °F 56% 30.10 in 9.0 mi North - - N/A   Overcast
10:15 AM 69.8 °F - 51.8 °F 53% 30.10 in 10.0 mi North - - N/A   Overcast
10:35 AM 69.8 °F - 53.6 °F 56% 30.10 in 10.0 mi North - - N/A   Overcast
10:55 AM 69.8 °F - 53.6 °F 56% 30.10 in 9.0 mi NNW 8.1 mph - N/A   Overcast
11:15 AM 69.8 °F - 53.6 °F 56% 30.10 in 9.0 mi NNW 8.1 mph - N/A   Mostly Cloudy
11:35 AM 71.6 °F - 53.6 °F 53% 30.10 in 8.0 mi NNW 8.1 mph - N/A   Mostly Cloudy
11:55 AM 71.6 °F - 55.4 °F 57% 30.10 in 9.0 mi NNW 6.9 mph - N/A   Overcast
12:15 PM 73.4 °F - 55.4 °F 53% 30.09 in 9.0 mi NNW 9.2 mph 17.3 mph N/A   Mostly Cloudy
12:35 PM 71.6 °F - 55.4 °F 57% 30.09 in 9.0 mi NNW 5.8 mph - N/A   Mostly Cloudy
12:55 PM 73.4 °F - 57.2 °F 57% 30.08 in 9.0 mi North - - N/A   Mostly Cloudy
1:15 PM 73.4 °F - 57.2 °F 57% 30.07 in 8.0 mi NNW 8.1 mph - N/A   Scattered Clouds
1:35 PM 75.2 °F - 57.2 °F 53% 30.07 in 9.0 mi North - - N/A   Mostly Cloudy
1:55 PM 75.2 °F - 59.0 °F 57% 30.07 in 9.0 mi North 9.2 mph - N/A   Mostly Cloudy
2:15 PM 77.0 °F - 60.8 °F 57% 30.06 in 9.0 mi NNW 6.9 mph 17.3 mph N/A   Mostly Cloudy
2:35 PM 78.8 °F - 62.6 °F 57% 30.06 in 9.0 mi North 10.4 mph 16.1 mph N/A   Scattered Clouds
2:55 PM 78.8 °F - 62.6 °F 57% 30.05 in 9.0 mi NNW 11.5 mph 17.3 mph N/A   Scattered Clouds
3:15 PM 80.6 °F 81.8 °F 62.6 °F 54% 30.05 in 9.0 mi North 10.4 mph - N/A   Scattered Clouds
3:35 PM 78.8 °F - 60.8 °F 54% 30.04 in 10.0 mi North 10.4 mph 16.1 mph N/A   Mostly Cloudy
3:55 PM 78.8 °F - 60.8 °F 54% 30.04 in 9.0 mi North 9.2 mph 18.4 mph N/A   Scattered Clouds
4:15 PM 77.0 °F - 60.8 °F 57% 30.04 in 8.0 mi NNW 6.9 mph 16.1 mph N/A   Mostly Cloudy
4:35 PM 75.2 °F - 57.2 °F 53% 30.05 in 10.0 mi NNW 4.6 mph - N/A   Mostly Cloudy
4:55 PM 73.4 °F - 57.2 °F 57% 30.04 in 9.0 mi NNW 5.8 mph - N/A   Overcast
5:15 PM 75.2 °F - 57.2 °F 53% 30.04 in 9.0 mi NNW 6.9 mph - N/A   Scattered Clouds
5:35 PM 69.8 °F - 53.6 °F 56% 30.05 in 0.8 mi NNW 6.9 mph - 0.06 in Rain Light Rain
5:55 PM 68.0 °F - 51.8 °F 56% 30.04 in 2.0 mi North - - 0.07 in   Light Drizzle
6:15 PM 68.0 °F - 51.8 °F 56% 30.04 in 6.0 mi NNW 5.8 mph - N/A   Haze
6:35 PM 68.0 °F - 51.8 °F 56% 30.04 in 9.0 mi NNW 4.6 mph - N/A   Mostly Cloudy
6:55 PM 68.0 °F - 51.8 °F 56% 30.04 in 8.0 mi North - - N/A   Overcast
7:15 PM 66.2 °F - 51.8 °F 60% 30.04 in 8.0 mi North - - N/A   Overcast
7:35 PM 66.2 °F - 50.0 °F 56% 30.04 in 8.0 mi WSW 3.5 mph - N/A   Partly Cloudy
7:55 PM 66.2 °F - 48.2 °F 52% 30.04 in 10.0 mi Calm Calm - N/A   Scattered Clouds
8:15 PM 66.2 °F - 48.2 °F 52% 30.05 in 9.0 mi North - - N/A   Overcast
8:35 PM 64.4 °F - 48.2 °F 56% 30.05 in 9.0 mi North - - N/A   Scattered Clouds
8:55 PM 64.4 °F - 48.2 °F 56% 30.05 in 7.0 mi Calm Calm - N/A   Scattered Clouds
9:15 PM 64.4 °F - 48.2 °F 56% 30.06 in 9.0 mi North - - N/A   Mostly Cloudy
9:35 PM 64.4 °F - 48.2 °F 56% 30.06 in 10.0 mi Calm Calm - N/A   Overcast
9:55 PM 64.4 °F - 48.2 °F 56% 30.05 in 7.0 mi Calm Calm - N/A   Overcast
10:15 PM 64.4 °F - 48.2 °F 56% 30.05 in 9.0 mi Calm Calm - N/A   Mostly Cloudy
10:35 PM 64.4 °F - 48.2 °F 56% 30.05 in 9.0 mi Calm Calm - N/A   Scattered Clouds
10:55 PM 64.4 °F - 48.2 °F 56% 30.04 in 10.0 mi North - - N/A   Scattered Clouds
11:15 PM 64.4 °F - 48.2 °F 56% 30.03 in 10.0 mi North - - N/A   Partly Cloudy
11:35 PM 64.4 °F - 48.2 °F 56% 30.03 in 10.0 mi North - - N/A   Scattered Clouds
11:55 PM 62.6 °F - 46.4 °F 55% 30.03 in 10.0 mi NNW 3.5 mph - N/A   Partly Cloudy